Precipitable_Water
0.81 0.77 0.76 0.73 0.64 0.63 0.62 0.49 0.39 0.77 0.58 0.29 0.35 0.38 0.41 0.38 0.30 0.37 0.39 0.41 0.37 0.38 0.36 0.36 0.37 0.34 0.40 0.40 0.39 0.30 0.26 0.26 0.20 0.24 0.30 0.33 0.32 0.32 0.33 0.26 0.24 0.30 0.28 0.23
0.81 0.79 0.80 0.77 0.67 0.63 0.58 0.47 0.70 0.72 0.52 0.31 0.37 0.47 0.40 0.37 0.32 0.33 0.37 0.39 0.42 0.45 0.40 0.35 0.38 0.39 0.44 0.42 0.37 0.36 0.29 0.27 0.20 0.25 0.34 0.38 0.29 0.33 0.34 0.35 0.33 0.25 0.21 0.24
0.81 0.82 0.83 0.81 0.72 0.72 0.74 0.69 0.48 0.41 0.42 0.66 0.39 0.38 0.33 0.33 0.43 0.42 0.44 0.43 0.44 0.41 0.40 0.42 0.36 0.37 0.41 0.40 0.34 0.30 0.36 0.28 0.21 0.16 0.21 0.25 0.22 0.25 0.30 0.30 0.27 0.28 0.29 0.33
0.80 0.83 0.85 0.83 0.79 0.81 0.81 0.74 0.50 0.38 0.25 0.42 0.43 0.38 0.37 0.35 0.33 0.43 0.44 0.40 0.40 0.39 0.34 0.36 0.36 0.39 0.34 0.36 0.31 0.33 0.33 0.22 0.25 0.23 0.23 0.25 0.25 0.25 0.28 0.29 0.31 0.28 0.31 0.34
0.78 0.82 0.87 0.85 0.85 0.84 0.67 0.66 0.59 0.50 0.51 0.37 0.42 0.42 0.38 0.38 0.39 0.40 0.37 0.39 0.42 0.44 0.37 0.36 0.35 0.36 0.33 0.32 0.34 0.35 0.36 0.23 0.23 0.16 0.25 0.26 0.21 0.26 0.30 0.31 0.32 0.34 0.36 0.36
0.75 0.79 0.86 0.87 0.87 0.87 0.72 0.74 0.71 0.57 0.46 0.45 0.43 0.42 0.40 0.41 0.45 0.46 0.48 0.46 0.45 0.41 0.44 0.47 0.46 0.43 0.40 0.37 0.36 0.33 0.32 0.25 0.20 0.15 0.23 0.22 0.26 0.32 0.32 0.34 0.38 0.38 0.34 0.40
0.73 0.74 0.81 0.86 0.84 0.90 0.90 0.76 0.67 0.57 0.38 0.43 0.42 0.45 0.46 0.45 0.46 0.40 0.49 0.51 0.46 0.52 0.55 0.47 0.41 0.36 0.35 0.35 0.36 0.39 0.29 0.25 0.26 0.18 0.23 0.14 0.30 0.36 0.37 0.37 0.39 0.41 0.42 0.45
0.74 0.72 0.74 0.79 0.82 0.84 0.76 0.72 0.72 0.57 0.38 0.45 0.48 0.45 0.46 0.52 0.51 0.51 0.52 0.55 0.57 0.55 0.48 0.33 0.20 0.21 0.20 0.26 0.32 0.33 0.39 0.31 0.22 0.19 0.20 0.23 0.29 0.37 0.36 0.34 0.34 0.46 0.48 0.53
0.77 0.72 0.71 0.74 0.76 0.80 0.75 0.68 0.83 0.67 0.45 0.48 0.54 0.49 0.53 0.47 0.49 0.51 0.53 0.61 0.62 0.54 0.42 0.26 0.13 0.16 0.20 0.22 0.25 0.36 0.37 0.42 0.28 0.25 0.19 0.16 0.29 0.42 0.47 0.44 0.31 0.55 0.56 0.55
0.81 0.76 0.72 0.72 0.74 0.79 0.79 0.66 0.78 0.70 0.56 0.61 0.62 0.55 0.52 0.61 0.57 0.51 0.51 0.49 0.46 0.53 0.32 0.20 0.18 0.19 0.23 0.18 0.19 0.23 0.24 0.29 0.24 0.26 0.23 0.27 0.38 0.45 0.49 0.29 0.38 0.59 0.59 0.59
0.81 0.77 0.74 0.71 0.74 0.76 0.81 0.67 0.75 0.70 0.55 0.60 0.70 0.70 0.65 0.62 0.60 0.52 0.55 0.45 0.46 0.41 0.28 0.24 0.22 0.22 0.27 0.25 0.28 0.26 0.23 0.23 0.23 0.27 0.24 0.21 0.48 0.48 0.41 0.51 0.60 0.64 0.62 0.61
0.84 0.81 0.78 0.75 0.72 0.74 0.82 0.64 0.73 0.75 0.59 0.57 0.77 0.79 0.82 0.74 0.70 0.62 0.57 0.45 0.44 0.42 0.33 0.33 0.32 0.23 0.32 0.28 0.20 0.32 0.27 0.32 0.30 0.32 0.32 0.50 0.58 0.57 0.64 0.67 0.63 0.64 0.63 0.62
0.86 0.84 0.81 0.79 0.77 0.75 0.81 0.73 0.74 0.68 0.55 0.54 0.56 0.53 0.66 0.74 0.75 0.78 0.47 0.53 0.53 0.51 0.62 0.44 0.36 0.25 0.33 0.21 0.24 0.27 0.33 0.38 0.34 0.37 0.43 0.49 0.57 0.64 0.67 0.67 0.66 0.67 0.66 0.58
0.87 0.86 0.85 0.82 0.80 0.81 0.83 0.74 0.77 0.72 0.59 0.40 0.51 0.72 0.61 0.70 0.70 0.69 0.69 0.61 0.63 0.65 0.60 0.42 0.35 0.28 0.41 0.33 0.31 0.35 0.36 0.38 0.34 0.38 0.48 0.55 0.65 0.67 0.69 0.67 0.66 0.62 0.56 0.50
0.87 0.87 0.86 0.85 0.83 0.86 0.88 0.84 0.82 0.84 0.66 0.44 0.49 0.63 0.67 0.68 0.68 0.66 0.65 0.63 0.57 0.55 0.46 0.40 0.34 0.43 0.39 0.45 0.46 0.35 0.36 0.32 0.34 0.37 0.54 0.57 0.61 0.70 0.71 0.64 0.58 0.54 0.46 0.44
0.88 0.88 0.87 0.86 0.85 0.85 0.81 0.64 0.83 0.87 0.85 0.52 0.37 0.66 0.60 0.64 0.68 0.68 0.65 0.66 0.63 0.60 0.54 0.46 0.48 0.52 0.46 0.36 0.31 0.35 0.38 0.47 0.53 0.52 0.65 0.67 0.69 0.69 0.66 0.57 0.54 0.47 0.45 0.39
0.92 0.92 0.90 0.89 0.88 0.86 0.71 0.64 0.84 0.90 0.90 0.57 0.44 0.47 0.60 0.64 0.66 0.67 0.66 0.70 0.63 0.59 0.54 0.49 0.47 0.48 0.52 0.42 0.29 0.35 0.43 0.52 0.59 0.65 0.66 0.60 0.62 0.57 0.59 0.51 0.48 0.44 0.35 0.29
0.95 0.95 0.95 0.94 0.93 0.89 0.78 0.88 0.91 0.95 0.78 0.69 0.47 0.46 0.50 0.66 0.56 0.53 0.66 0.57 0.58 0.57 0.52 0.53 0.46 0.50 0.49 0.34 0.37 0.45 0.51 0.59 0.61 0.64 0.68 0.65 0.63 0.55 0.49 0.45 0.37 0.31 0.27 0.26
1.02 1.00 1.00 0.95 0.86 0.75 0.83 0.97 0.96 0.96 0.80 0.56 0.50 0.40 0.37 0.63 0.55 0.57 0.56 0.58 0.42 0.54 0.43 0.42 0.46 0.40 0.31 0.36 0.44 0.54 0.59 0.58 0.58 0.61 0.58 0.54 0.49 0.45 0.40 0.35 0.30 0.26 0.25 0.23
1.05 0.98 0.81 0.66 0.79 0.96 0.94 0.82 0.69 0.70 0.70 0.65 0.48 0.55 0.42 0.52 0.49 0.45 0.44 0.48 0.42 0.35 0.42 0.52 0.42 0.38 0.48 0.51 0.58 0.63 0.63 0.63 0.62 0.53 0.48 0.46 0.43 0.38 0.34 0.29 0.29 0.28 0.24 0.21
0.90 0.77 0.71 0.85 0.99 0.86 0.75 0.61 0.58 0.59 0.49 0.55 0.54 0.55 0.46 0.61 0.43 0.42 0.50 0.44 0.47 0.35 0.41 0.42 0.39 0.36 0.46 0.58 0.61 0.64 0.66 0.63 0.58 0.53 0.49 0.43 0.37 0.33 0.30 0.29 0.29 0.25 0.23 0.22
0.86 0.84 0.89 0.86 0.74 0.67 0.58 0.53 0.57 0.51 0.46 0.52 0.50 0.54 0.58 0.58 0.66 0.54 0.54 0.46 0.48 0.36 0.51 0.42 0.34 0.43 0.55 0.58 0.57 0.56 0.56 0.53 0.46 0.44 0.41 0.38 0.34 0.32 0.30 0.27 0.23 0.23 0.23 0.23
0.82 0.73 0.65 0.62 0.58 0.47 0.44 0.39 0.42 0.44 0.51 0.53 0.54 0.51 0.58 0.61 0.63 0.56 0.52 0.44 0.41 0.53 0.40 0.35 0.41 0.53 0.55 0.54 0.52 0.50 0.49 0.43 0.42 0.39 0.37 0.34 0.30 0.27 0.24 0.22 0.22 0.24 0.23 0.24
0.59 0.54 0.45 0.47 0.43 0.45 0.47 0.46 0.47 0.54 0.56 0.57 0.58 0.55 0.55 0.58 0.53 0.53 0.43 0.46 0.47 0.36 0.32 0.34 0.47 0.49 0.49 0.51 0.50 0.47 0.43 0.40 0.36 0.33 0.32 0.29 0.26 0.24 0.23 0.24 0.24 0.24 0.23 0.24
0.47 0.49 0.40 0.42 0.49 0.52 0.53 0.56 0.55 0.58 0.61 0.58 0.54 0.53 0.54 0.49 0.47 0.47 0.43 0.37 0.33 0.35 0.35 0.43 0.48 0.49 0.49 0.46 0.44 0.41 0.39 0.37 0.34 0.30 0.27 0.25 0.23 0.22 0.22 0.24 0.26 0.26 0.26 0.25
0.42 0.43 0.40 0.46 0.45 0.46 0.49 0.51 0.50 0.58 0.57 0.57 0.54 0.46 0.42 0.40 0.42 0.37 0.35 0.34 0.31 0.37 0.43 0.46 0.46 0.44 0.44 0.43 0.41 0.38 0.35 0.31 0.29 0.27 0.24 0.23 0.23 0.23 0.24 0.25 0.26 0.26 0.26 0.27
0.34 0.35 0.45 0.45 0.44 0.44 0.47 0.50 0.50 0.58 0.51 0.42 0.44 0.37 0.35 0.41 0.35 0.33 0.38 0.34 0.38 0.42 0.43 0.43 0.43 0.40 0.38 0.36 0.33 0.32 0.30 0.28 0.25 0.24 0.24 0.23 0.25 0.25 0.24 0.22 0.25 0.29 0.32 0.31
Wind_Speed
18 19 20 23 26 27 25 22 18 19 20 17 15 12 8 7 8 6 5 3 5 6 6 5 4 6 3 3 1 2 2 1 2 4 5 7 9 10 11 9 10 10 11 14
18 19 20 23 26 27 24 21 17 19 20 15 14 10 8 8 8 9 7 5 5 5 6 4 5 5 3 2 0 1 2 2 4 1 4 7 10 11 12 10 10 12 12 12
18 19 21 23 25 27 23 19 16 19 20 13 17 12 10 8 6 7 7 6 7 7 6 5 6 6 4 2 1 2 3 4 5 7 10 13 15 17 17 16 13 14 15 19
19 19 20 22 24 25 22 17 17 19 20 15 13 14 12 11 9 9 9 8 8 8 6 6 6 6 5 5 4 4 5 6 8 11 14 15 17 20 20 19 18 17 17 20
20 19 20 21 23 24 22 16 16 18 14 19 15 11 12 12 10 11 12 9 10 9 8 7 8 7 7 5 5 5 6 7 10 11 12 17 22 24 19 19 19 17 17 17
20 19 19 20 22 23 21 18 16 17 15 15 15 13 13 13 10 9 10 11 10 5 4 3 3 3 4 5 6 7 8 10 11 11 16 20 15 14 17 17 16 17 15 17
20 19 19 19 20 21 19 19 18 16 16 16 16 15 13 13 12 11 9 9 9 9 8 5 5 5 6 9 8 9 9 11 11 14 17 14 15 23 20 19 16 17 18 17
19 19 19 19 19 19 19 19 18 17 16 18 16 16 14 11 11 11 8 7 9 11 10 9 9 9 8 9 9 9 10 10 12 14 16 21 20 16 16 18 19 19 16 18
19 18 18 18 18 18 19 18 18 16 16 17 17 16 15 14 13 12 11 11 10 11 10 10 10 10 10 9 8 9 11 12 14 14 16 17 18 18 19 21 21 16 19 20
20 18 17 17 17 18 18 18 18 18 16 16 16 17 17 16 16 14 13 13 12 12 11 11 12 12 12 12 12 12 12 14 15 17 19 20 22 20 19 19 19 21 21 24
20 19 17 16 16 17 18 18 18 18 17 16 17 16 17 16 17 15 14 13 14 13 13 13 13 13 14 13 14 13 14 13 16 17 19 21 19 21 20 22 26 24 25 27
21 19 18 16 16 17 17 18 17 17 17 17 18 18 17 17 16 17 17 15 14 15 13 14 14 14 14 14 15 16 16 17 18 18 20 20 20 22 23 23 24 26 29 30
22 20 18 17 16 16 17 17 17 17 17 18 19 19 18 18 17 17 17 17 16 16 15 15 16 16 16 17 19 19 20 22 22 23 25 27 25 23 23 26 27 29 29 30
23 21 20 18 17 17 17 18 17 17 16 17 18 19 19 19 19 19 19 18 18 18 18 18 19 19 21 21 22 22 21 23 25 28 28 28 24 24 26 29 28 28 28 30
24 22 21 20 18 18 18 17 17 18 18 16 17 19 20 20 20 20 20 20 20 21 21 21 22 23 23 23 24 25 24 26 26 28 28 26 26 26 28 28 27 27 29 31
25 24 22 21 20 19 19 19 19 19 18 18 18 19 19 20 21 22 22 23 22 23 22 23 24 24 23 23 25 25 26 25 26 26 25 24 25 27 27 26 27 28 31 33
25 24 23 22 21 21 21 19 18 20 20 19 19 21 21 21 21 21 21 21 22 23 24 24 24 25 26 27 28 26 26 29 28 26 25 26 25 26 25 26 28 30 32 35
25 24 23 22 22 21 22 21 20 20 20 21 21 21 21 20 21 22 23 22 23 25 25 25 26 26 27 29 29 30 30 28 26 25 26 25 25 25 26 27 30 32 35 37
26 25 24 24 24 23 22 22 22 22 23 23 23 23 23 22 22 22 22 23 23 25 27 27 27 28 29 28 28 28 26 24 24 23 22 23 24 26 27 29 32 35 37 39
27 24 24 23 24 23 23 23 23 24 26 26 26 25 24 23 22 22 21 23 24 25 26 25 28 32 32 30 28 27 25 24 23 23 25 25 27 28 30 32 34 36 39 40
26 24 24 24 21 22 23 23 23 23 25 26 27 28 25 25 24 23 23 23 23 25 26 27 28 29 28 27 25 24 22 23 23 24 24 26 28 30 32 34 36 38 39 40
24 24 22 22 22 22 22 23 23 24 24 24 24 24 24 23 23 22 24 24 23 25 23 25 27 26 20 19 20 20 21 22 22 24 26 28 30 32 34 37 38 39 40 41
21 21 21 21 21 21 21 22 23 23 23 22 21 20 21 22 22 21 22 22 24 23 23 24 23 20 20 21 20 21 21 21 24 26 28 31 33 35 37 38 39 40 41 41
20 20 19 21 20 20 21 21 21 22 22 21 21 21 21 22 21 21 21 22 22 22 23 24 22 21 21 21 22 23 23 24 27 30 32 34 36 37 38 38 40 40 41 41
20 21 20 20 21 21 22 24 24 23 22 22 22 22 22 21 21 22 21 21 22 22 21 19 20 21 21 21 22 23 26 29 30 33 35 37 37 37 39 39 40 41 41 40
20 21 21 21 21 19 19 19 19 21 22 21 21 22 22 22 22 22 22 22 21 19 21 22 21 21 22 23 24 26 29 31 34 36 36 37 37 38 40 40 41 41 41 40
20 20 20 20 20 20 20 20 19 19 19 19 20 19 19 20 20 20 21 21 21 22 22 23 23 24 24 25 27 29 32 33 34 35 36 37 38 40 40 41 41 40 39 39
Wind_Direction
175 175 175 176 177 177 177 178 183 183 182 185 196 209 209 219 206 220 207 225 194 181 182 177 166 157 132 167 207 94 57 53 334 31 9 351 336 332 326 320 310 299 287 280
175 174 174 175 176 177 177 180 185 184 185 193 200 200 202 209 203 208 202 201 191 178 176 177 164 160 175 184 152 179 329 337 317 260 319 324 337 332 325 322 315 296 287 290
175 174 175 175 177 178 179 187 185 185 192 210 201 207 206 206 227 198 206 191 190 186 183 188 186 173 196 202 162 266 290 305 315 315 319 326 321 320 313 303 301 297 289 292
176 176 177 178 180 182 185 192 194 192 199 210 211 207 210 207 213 213 206 204 201 194 198 194 198 182 192 219 242 265 298 292 315 311 314 318 319 316 313 303 297 292 294 288
179 178 179 182 184 187 191 198 195 195 201 205 211 206 218 214 209 204 205 214 210 200 203 221 214 214 224 236 250 272 296 298 312 306 310 325 317 314 311 306 298 295 304 299
182 183 183 185 188 192 199 200 202 202 207 206 210 212 224 216 201 219 216 211 198 188 190 206 215 224 244 249 260 270 293 300 310 304 322 319 323 325 329 321 314 307 299 296
186 187 188 190 193 197 204 205 208 207 210 212 213 217 218 211 209 210 199 201 204 213 209 226 238 247 264 263 278 287 287 300 306 307 316 323 327 322 312 317 314 310 302 302
188 191 193 196 198 202 206 207 212 211 215 217 217 219 216 201 207 197 201 229 221 215 235 241 245 255 266 269 282 283 284 292 304 308 310 311 315 322 328 323 312 310 307 310
192 194 196 200 202 205 207 208 213 214 212 219 219 218 208 211 205 216 227 228 229 235 241 242 244 250 261 254 268 300 294 296 297 306 307 310 316 325 321 316 305 316 312 309
196 198 200 202 206 208 210 211 214 219 218 219 223 217 217 218 221 227 224 229 234 243 243 246 248 255 264 262 267 276 290 292 292 295 301 305 305 314 311 310 312 312 310 307
200 201 203 206 209 211 213 215 218 221 222 221 224 223 222 227 228 230 226 233 240 243 245 247 253 260 261 270 273 275 279 286 292 295 300 302 309 308 307 309 309 308 310 310
204 205 207 210 212 214 216 217 219 222 223 225 226 227 229 230 238 234 230 244 238 240 246 250 258 261 270 277 275 276 281 284 292 288 297 297 309 307 307 310 308 307 308 309
208 210 211 214 216 217 219 219 222 223 226 226 227 228 231 233 236 238 239 245 247 244 255 253 258 263 265 269 274 280 285 289 289 292 294 294 302 303 304 307 306 305 305 307
211 213 215 217 220 220 222 222 225 226 227 229 230 232 232 237 240 242 247 245 248 251 255 260 262 267 265 271 275 280 283 291 292 291 291 294 297 298 301 305 304 304 306 309
213 216 219 221 222 224 224 224 227 228 232 231 234 236 238 240 242 244 247 247 250 256 260 263 266 269 273 277 278 280 282 287 288 291 295 291 294 296 300 302 302 305 308 310
215 218 221 224 226 229 228 230 231 234 236 237 240 242 242 243 245 247 250 252 256 258 262 265 269 270 270 276 278 284 284 288 292 294 295 297 296 296 298 299 303 305 309 310
216 219 222 225 228 229 231 234 237 238 239 241 245 246 246 249 247 251 254 258 260 262 265 266 269 272 272 276 278 285 286 286 289 291 291 294 293 296 296 299 302 306 309 311
217 220 223 226 229 230 234 238 239 241 241 245 246 248 250 250 253 255 260 261 264 264 267 270 272 274 275 278 282 283 283 284 287 288 289 291 291 294 296 301 305 307 309 312
221 223 226 230 232 234 237 239 243 243 245 247 249 248 254 253 257 260 262 263 266 268 268 270 272 272 272 278 282 284 284 281 284 285 287 291 294 297 300 303 306 308 310 312
218 224 229 234 234 238 239 244 246 248 248 249 251 251 254 256 258 260 264 268 267 269 271 272 273 275 276 279 282 284 279 279 282 284 287 292 296 298 301 304 306 308 310 311
221 227 231 235 233 236 241 243 246 249 252 252 254 250 253 256 260 262 263 265 268 272 273 273 277 280 279 274 274 278 277 279 282 288 291 294 297 300 302 304 306 308 309 310
222 225 229 233 239 244 242 241 248 249 252 253 254 257 254 256 261 263 264 264 269 271 272 276 279 282 280 276 274 276 277 279 285 289 292 295 298 302 304 305 306 307 308 309
225 231 234 237 238 239 240 241 247 249 252 254 255 256 253 256 259 264 263 263 266 272 273 276 277 277 278 277 276 278 282 287 291 293 295 298 300 302 303 304 305 306 307 308
232 232 233 237 236 240 241 247 250 250 254 253 254 255 257 257 260 261 264 266 267 270 273 274 276 275 275 275 278 278 284 287 291 294 296 298 300 301 303 303 305 306 307 309
236 236 237 239 240 244 247 248 249 254 255 255 255 257 258 259 259 264 264 263 267 271 273 274 278 281 278 279 279 282 285 289 292 295 298 299 300 302 303 304 304 305 307 308
239 240 240 239 239 243 246 248 249 250 252 254 257 257 260 260 262 261 263 265 268 271 273 276 279 280 280 281 283 286 290 293 295 297 299 300 301 302 303 304 305 305 305 306
241 241 240 242 243 243 246 248 249 251 252 253 256 257 259 260 262 262 265 268 271 275 276 278 278 278 279 282 286 289 292 294 296 298 299 301 302 303 304 305 305 304 304 305